This demonstration page uses our WeatherBlox Daily Observations layout. Learn more.

Left ArrowRight Arrow

Hourly Observations for June 11, 2021

Temp ( °F °C ) Dew Point ( °F °C ) Humidity (%) Winds ( mph kmh ) Pressure ( in mb ) Visibility ( mi km ) Precip ( " mm )
12:59 am 00:59 Cloudy with Mist and Fog 73 22.8 71 21.7 94 94 E 3 6 29.93 1014 6 10 0.00 0.00
1:59 am 01:59 Cloudy with Mist and Fog 74 23.3 71 21.7 91 91 SE 3 6 29.91 1013 6 10 0.00 0.00
2:59 am 02:59 Mostly Cloudy with Mist and Fog 73 22.8 71 21.7 94 94 Calm 29.90 1013 5 8 0.00 0.00
3:59 am 03:59 Mostly Cloudy with Mist and Fog 73 22.8 71 21.7 94 94 E 5 7 29.88 1012 5 8 0.00 0.00
4:59 am 04:59 Cloudy 73 22.8 70 21.1 90 90 SE 3 6 29.88 1012 8 13 0.00 0.00
5:59 am 05:59 Mostly Cloudy 73 22.8 71 21.7 94 94 SE 5 7 29.88 1012 7 11 0.00 0.00
6:59 am 06:59 Cloudy with Mist and Fog 74 23.3 71 21.7 91 91 SE 3 6 29.87 1012 6 10 0.00 0.00
7:44 am 07:44 Cloudy 74 23.3 72 22.2 94 94 ESE 6 9 29.87 1011 7 11 0.01 0.25
7:59 am 07:59 Cloudy 75 23.9 72 22.2 90 90 SE 5 7 29.87 1012 7 11 0.01 0.25
8:10 am 08:10 Cloudy 75 23.9 72 22.2 90 90 SSE 7 11 29.87 1011 7 11 0.00 0.00
8:59 am 08:59 Cloudy 75 23.9 71 21.7 88 88 SSE 6 9 29.87 1012 8 13 0.00 0.00
9:29 am 09:29 Cloudy 76 24.4 72 22.2 88 88 SSE 6 9 29.86 1011 8 13 0.00 0.00
9:59 am 09:59 Cloudy 76 24.4 71 21.7 85 85 SW 6 9 29.85 1011 8 13 0.00 0.00
10:59 am 10:59 Cloudy 76 24.4 72 22.2 88 88 S 3 6 29.85 1011 7 11 0.00 0.00
11:22 am 11:22 Cloudy with Light Rain 76 24.4 72 22.2 88 88 S 3 6 29.86 1011 2 3 0.00 0.00
11:32 am 11:32 Cloudy with Light Rain 76 24.4 72 22.2 88 88 S 3 6 29.86 1011 2 3 0.00 0.00
11:48 am 11:48 Cloudy with Mist and Fog 76 24.4 72 22.2 88 88 ESE 3 6 29.86 1011 6 10 0.00 0.00
11:59 am 11:59 Cloudy 76 24.4 73 22.8 91 91 Calm 29.86 1011 7 11 0.00 0.00
12:22 pm 12:22 Cloudy 78 25.6 73 22.8 85 85 E 3 6 29.85 1011 7 11 0.00 0.00
12:59 pm 12:59 Cloudy 79 26.1 73 22.8 82 82 SE 3 6 29.84 1010 8 13 0.00 0.00
1:59 pm 13:59 Cloudy 79 26.1 73 22.8 82 82 E 8 13 29.81 1009 9 14 0.00 0.00
2:59 pm 14:59 Cloudy 80 26.7 73 22.8 79 79 ENE 9 15 29.79 1009 10 16 0.00 0.00
3:59 pm 15:59 Mostly Cloudy 81 27.2 73 22.8 77 77 E 10 17 29.77 1008 10 16 0.00 0.00
4:59 pm 16:59 Mostly Cloudy 81 27.2 73 22.8 77 77 ESE 9 15 29.75 1008 10 16 0.00 0.00
5:59 pm 17:59 Mostly Cloudy 79 26.1 72 22.2 79 79 ESE 10 17 29.73 1007 10 16 0.00 0.00
6:59 pm 18:59 Mostly Cloudy 77 25 72 22.2 85 85 ESE 8 13 29.73 1007 10 16 0.00 0.00
7:50 pm 19:50 Mostly Cloudy 76 24.4 71 21.7 85 85 SE 8 13 29.74 1007 9 14 0.00 0.00
7:59 pm 19:59 Mostly Cloudy 76 24.4 71 21.7 85 85 SE 9 15 29.75 1007 8 13 0.00 0.00
8:19 pm 20:19 Mostly Cloudy with Thunderstorms 76 24.4 72 22.2 88 88 SE 9 15 29.74 1007 8 13 0.00 0.00
8:59 pm 20:59 Mostly Cloudy with Thunderstorms 76 24.4 72 22.2 88 88 ESE 7 11 29.73 1007 5 8 0.00 0.00
9:59 pm 21:59 Mostly Cloudy with Light Rain 75 23.9 73 22.8 94 94 E 5 7 29.75 1008 5 8 0.00 0.00
10:59 pm 22:59 Cloudy with Light Rain 75 23.9 72 22.2 90 90 ESE 5 7 29.75 1008 5 8 0.00 0.00
11:30 pm 23:30 Cloudy with Light Rain 75 23.9 72 22.2 90 90 E 7 11 29.75 1007 5 8 0.00 0.00
11:59 pm 23:59 Cloudy with Light Rain 75 23.9 72 22.2 90 90 E 3 6 29.75 1007 6 10 0.00 0.00

Powered by AerisWeather